Startseite
Über Mich
AHP4
Galerie
Sehschlangen
Tourenbuch
Bookmarks
Elektronik
Bewertung
Geschichten
[Tagesmessung] [Jahreswerte] [Information]

Messwerte vom 27.02.2022

Die letzten Messwerte von 23:58:47 Uhr:
KategorieMesswert
Temperatur [°C]-2
Luftdruck [mBar]1019
Sonneneinstrahlung0
Wind [km/h]0 aus Nord
Niederschlag [l/m²]0
rel.Luftfeucht.88.3%
CO2 [ppm]647

Diagramme
Messwerte vom 27.02.2022
Tagesaggregation
KategorieMinimumMaximumSchnittSumme
Temperatur [°C]-4121.7125
Luftdruck [mBar]101710211019.6625
Sonneneinstrahlung24693.1875
Wind [km/h]0
rF [%]4096.681.97
Niederschlag [l/m²]0
CO2 [ppm]403655461.4
Einordnung alsFrosttag
Vegetationstag

Messungen an benachbarten Tagen: Zur Jahresaggregation 2022
Tabelle aller Messwerte
UhrzeitTemperatur [°C]Luftdruck [mBar]SonneWind [km/h]RichtungRegen [l/m²]rF [%]CO2 [ppm]
00:01:47 -2 1020 0 0 N 0 94.5 439
00:04:47 -2 1020 0 0 N 0 94.5 433
00:07:46 -2 1020 0 0 N 0 94.6 445
00:10:48 -2 1020 0 0 N 0 94.5 442
00:13:47 -3 1020 0 0 N 0 94.6 442
00:16:46 -3 1020 0 0 N 0 94.6 440
00:19:48 -3 1020 0 0 N 0 94.7 454
00:22:50 -3 1020 0 0 NO 0 95.4 448
00:25:46 -2 1019 0 0 NO 0 95.5 442
00:28:46 -3 1020 0 0 O 0 95.3 433
00:31:47 -3 1020 0 0 O 0 95.1 445
00:34:47 -3 1020 0 0 O 0 95 456
00:37:46 -3 1020 0 0 O 0 95 454
00:40:46 -3 1020 0 0 O 0 95.2 441
00:43:48 -3 1020 0 0 O 0 95.2 442
00:46:46 -3 1020 0 0 O 0 95.3 438
00:49:46 -3 1020 0 0 O 0 95.4 440
00:52:47 -3 1020 0 0 O 0 95.4 445
00:55:47 -3 1020 0 0 O 0 95.4 442
00:58:46 -3 1019 0 0 O 0 95.5 442
01:01:45 -3 1020 0 0 O 0 95.5 445
01:04:46 -3 1020 0 0 O 0 95.5 445
01:07:47 -3 1020 0 0 O 0 95.5 444
01:10:49 -3 1020 0 0 O 0 95.6 440
01:13:45 -3 1020 0 0 O 0 95.7 444
01:16:44 -3 1021 0 0 O 0 95.7 448
01:19:48 -3 1020 0 0 O 0 95.7 453
01:22:47 -3 1020 0 0 O 0 95.7 448
01:25:48 -3 1020 0 0 O 0 95.7 448
01:28:46 -3 1020 0 0 O 0 95.7 445
01:31:46 -3 1020 0 0 O 0 95.7 442
01:34:46 -3 1020 0 0 O 0 95.8 439
01:37:46 -3 1020 0 0 O 0 95.8 442
01:40:47 -3 1020 0 0 O 0 96 445
01:43:47 -3 1020 0 0 O 0 96.1 445
01:46:46 -3 1020 0 0 O 0 96.6 448
01:49:46 -3 1020 0 0 O 0 96.6 457
01:52:45 -2 1020 0 0 O 0 96.6 456
01:55:45 -3 1020 0 0 O 0 96.6 451
01:58:46 -3 1020 0 0 O 0 96.6 451
02:01:47 -3 1020 0 0 O 0 96.6 448
02:04:47 -3 1020 0 0 O 0 96.6 451
02:07:46 -3 1020 0 0 O 0 96.6 446
02:10:48 -3 1020 0 0 O 0 96.6 444
02:13:47 -3 1020 0 0 O 0 96.6 440
02:16:48 -3 1020 0 0 O 0 96.6 442
02:19:46 -3 1020 0 0 O 0 96.6 445
02:22:49 -3 1020 0 0 O 0 96.6 448
02:25:47 -3 1020 0 0 O 0 96.6 448
02:28:47 -3 1020 0 0 O 0 96.6 444
02:31:47 -3 1020 0 0 O 0 96.6 445
02:34:48 -3 1021 0 0 O 0 96.6 448
02:37:48 -3 1020 0 0 O 0 96.6 451
02:40:45 -3 1020 0 0 O 0 96.6 447
02:43:48 -3 1020 0 0 O 0 96.6 442
02:46:45 -3 1019 0 0 O 0 96.6 442
02:49:48 -3 1020 0 0 O 0 96.6 444
02:52:48 -3 1020 0 0 O 0 96.6 442
02:55:47 -3 1020 0 0 O 0 96.6 436
02:58:46 -3 1020 0 0 O 0 96.6 440
03:01:49 -3 1020 0 0 NW 0 96.6 448
03:04:49 -3 1019 0 0 NW 0 96.6 451
03:07:49 -3 1020 0 0 NW 0 96.6 443
03:10:48 -3 1020 0 0 NW 0 96.6 442
03:13:49 -3 1020 0 0 NW 0 96.6 448
03:16:46 -3 1020 0 0 NW 0 96.6 450
03:19:48 -3 1020 0 0 NW 0 96.6 448
03:22:46 -3 1020 0 0 NW 0 96.6 448
03:25:46 -3 1020 0 0 NW 0 96.6 448
03:28:50 -3 1020 0 0 NW 0 96.6 447
03:31:46 -3 1020 0 0 NO 0 96.6 442
03:34:48 -3 1020 0 0 NO 0 96.6 442
03:37:48 -3 1020 0 0 NO 0 96.6 445
03:40:49 -3 1020 0 0 NO 0 96.6 442
03:43:49 -3 1020 0 0 NO 0 96.6 445
03:46:49 -3 1019 0 0 NO 0 96.6 442
03:49:46 -3 1020 0 0 NO 0 96.6 445
03:52:47 -3 1020 0 0 NO 0 96.6 439
03:55:47 -3 1020 0 0 NO 0 96.6 439
03:58:48 -3 1020 0 0 NO 0 96.6 442
04:01:49 -3 1019 0 0 NW 0 96.6 454
04:04:48 -3 1019 0 0 NO 0 96.6 454
04:07:46 -3 1020 0 0 N 0 96.6 456
04:10:47 -3 1020 0 0 N 0 96.6 450
04:13:45 -3 1020 0 0 N 0 96.6 450
04:16:46 -3 1019 0 0 N 0 96.6 442
04:19:50 -3 1020 0 0 N 0 96.6 436
04:22:45 -3 1020 0 0 N 0 96.6 439
04:25:45 -3 1020 0 0 N 0 96.6 447
04:29:37 -3 1019 0 0 N 0 96.6 448
04:31:49 -3 1020 0 0 N 0 96.6 452
04:34:47 -3 1020 0 0 N 0 96.6 442
04:37:46 -3 1019 0 0 N 0 96.6 444
04:40:48 -3 1019 0 0 N 0 96.6 447
04:43:46 -3 1020 0 0 N 0 96.6 448
04:46:46 -3 1019 0 0 N 0 96.6 450
04:49:47 -3 1020 0 0 N 0 96.6 448
04:52:46 -3 1020 0 0 N 0 96.6 451
04:55:46 -3 1020 0 0 N 0 96.6 450
04:58:45 -3 1020 0 0 N 0 96.6 447
05:01:45 -3 1020 0 0 N 0 96.6 438
05:04:47 -3 1020 0 0 N 0 96.6 448
05:07:49 -3 1020 0 0 S 0 96.6 450
05:10:47 -3 1020 0 0 S 0 96.6 439
05:13:48 -3 1020 0 0 S 0 96.6 436
05:16:45 -3 1020 0 0 S 0 96.6 439
05:19:48 -3 1020 0 0 NW 0 96.6 448
05:22:46 -3 1020 0 0 S 0 96.6 442
05:25:47 -3 1019 0 0 S 0 96.6 442
05:28:45 -3 1020 0 0 S 0 96.6 439
05:31:47 -3 1020 0 0 S 0 96.6 445
05:34:47 -3 1020 0 0 S 0 96.6 448
05:37:46 -3 1020 0 0 S 0 96.6 444
05:40:47 -3 1020 0 0 S 0 96.6 440
05:43:47 -3 1020 0 0 S 0 96.6 443
05:46:48 -3 1020 0 0 S 0 96.6 439
05:49:46 -3 1020 0 0 S 0 96.6 442
05:52:46 -3 1020 0 0 S 0 96.6 440
05:55:46 -3 1020 0 0 S 0 96.6 439
05:58:47 -3 1020 0 0 S 0 96.6 436
06:01:47 -3 1020 0 0 S 0 96.6 439
06:04:48 -3 1020 0 0 NO 0 96.6 439
06:07:48 -3 1020 0 0 NO 0 96.6 445
06:10:47 -3 1020 0 0 NO 0 96.6 448
06:13:49 -3 1020 0 0 NO 0 96.6 448
06:16:47 -3 1020 0 0 NO 0 96.6 442
06:19:49 -3 1020 0 0 NO 0 96.6 436
06:22:47 -3 1020 0 0 NO 0 96.6 430
06:25:47 -3 1020 0 0 NO 0 96.6 437
06:28:49 -3 1020 0 0 SO 0 96.6 439
06:31:46 -3 1020 0 0 N 0 96.6 445
06:34:46 -3 1020 0 0 SO 0 96.6 439
06:37:47 -3 1021 0 0 SO 0 96.6 439
06:40:46 -3 1020 0 0 SO 0 96.6 439
06:43:47 -4 1020 3 0 SO 0 96.6 444
06:46:49 -4 1020 6 0 SO 0 96.6 448
06:49:48 -4 1020 10 0 SO 0 96.6 444
06:52:46 -4 1020 17 0 SO 0 96.6 440
06:55:48 -4 1020 25 0 SO 0 96.6 436
06:58:48 -4 1021 35 0 SO 0 96.6 445
07:01:48 -4 1020 47 0 SO 0 96.6 439
07:04:47 -4 1021 60 0 SO 0 96.6 439
07:07:48 -4 1021 73 0 NO 0 96.6 444
07:10:49 -3 1020 86 0 NO 0 96.6 444
07:13:49 -3 1020 98 0 NO 0 96.6 444
07:16:49 -3 1020 109 0 NO 0 96.6 439
07:19:48 -3 1021 118 0 NO 0 96.6 439
07:22:47 -3 1021 126 0 SO 0 96.6 436
07:25:48 -3 1021 134 0 SO 0 96.6 435
07:28:47 -3 1020 141 0 SO 0 96.6 442
07:31:48 -4 1020 146 0 SO 0 96.6 445
07:34:48 -4 1021 151 0 SO 0 96.6 439
07:37:50 -3 1020 155 0 SO 0 96.6 430
07:40:52 -3 1020 159 0 SO 0 96.6 428
07:43:50 -3 1021 162 0 SO 0 96.6 431
07:46:48 -3 1020 165 0 SO 0 96.6 428
07:49:49 -3 1020 167 0 SO 0 96.6 430
07:52:50 -3 1021 169 0 SO 0 96.6 433
07:55:49 -3 1021 172 0 SO 0 96.6 440
07:58:49 -3 1021 173 0 SO 0 96.6 434
08:01:50 -3 1020 175 0 SO 0 96.6 436
08:04:49 -3 1020 176 0 O 0 96.6 445
08:07:48 -3 1021 177 0 O 0 96.6 447
08:10:47 -3 1021 178 0 O 0 96.6 446
08:13:48 -2 1021 179 0 O 0 96.6 439
08:16:47 -2 1021 180 0 O 0 96.6 442
08:19:50 -3 1021 181 0 NO 0 96.6 442
08:22:47 -3 1021 182 0 NO 0 96.6 445
08:25:51 -2 1021 183 0 NO 0 96.6 450
08:28:48 -2 1021 183 0 NO 0 96.6 451
08:31:48 -2 1021 184 0 O 0 96.6 448
08:34:48 -2 1021 185 0 NO 0 96.6 447
08:37:49 -1 1021 185 0 N 0 96.6 444
08:40:49 -1 1021 186 0 NO 0 96.6 440
08:43:51 -1 1021 186 0 NO 0 96.6 439
08:46:48 -1 1021 186 0 NO 0 96.6 442
08:49:50 -1 1021 187 0 NO 0 96.6 442
08:52:47 -1 1020 187 0 O 0 96.6 433
08:55:50 -1 1021 187 0 NO 0 96.6 430
08:58:47 -1 1020 188 0 NO 0 96.6 433
09:01:48 -1 1021 188 0 W 0 96.6 430
09:04:48 -1 1020 189 0 O 0 96.6 439
09:07:48 0 1021 189 0 NO 0 96.6 436
09:10:46 0 1021 189 0 O 0 96.6 430
09:13:48 0 1021 189 0 NO 0 96.6 430
09:16:46 0 1020 190 0 O 0 96.6 436
09:19:49 0 1021 190 0 NW 0 96.6 439
09:22:46 0 1021 191 0 W 0 96.6 439
09:25:49 0 1021 191 0 NO 0 96.6 433
09:28:48 0 1021 192 0 NO 0 96.6 430
09:31:48 0 1021 192 0 S 0 96.6 427
09:34:49 0 1021 192 0 NO 0 96.6 430
09:37:47 1 1021 192 0 N 0 96.6 433
09:40:50 1 1020 193 0 NW 0 96.6 439
09:43:48 1 1021 193 0 S 0 96.6 430
09:46:51 1 1021 194 0 S 0 96.6 425
09:49:49 1 1021 194 0 SO 0 96.6 434
09:52:50 1 1021 194 0 NW 0 96.6 442
09:55:48 1 1021 195 0 SO 0 96.6 436
09:58:47 1 1021 195 0 SO 0 96.6 437
10:01:45 1 1021 196 0 N 0 96.6 440
10:04:47 1 1020 196 0 N 0 96.6 437
10:07:48 2 1021 197 0 N 0 96.6 434
10:10:46 2 1021 198 0 O 0 96.6 430
10:13:49 2 1021 198 0 S 0 96.6 427
10:16:47 2 1021 199 0 S 0 96.6 419
10:19:48 2 1020 200 0 NW 0 96.6 421
10:22:50 2 1021 201 0 NO 0 96.6 424
10:25:47 2 1021 202 0 N 0 96.6 422
10:28:48 2 1021 202 0 O 0 96.6 427
10:31:47 3 1021 203 0 SO 0 96.6 436
10:34:47 3 1020 204 0 N 0 96.6 436
10:37:49 3 1021 204 0 S 0 96.6 433
10:40:47 3 1021 204 0 O 0 96.6 430
10:43:48 3 1021 204 0 S 0 96.6 433
10:46:48 4 1021 205 0 SW 0 96.6 438
10:49:49 4 1021 205 0 NO 0 96.6 431
10:52:46 4 1021 205 0 O 0 96.6 422
10:55:49 4 1020 205 0 NO 0 96.6 418
10:58:51 4 1021 205 0 NW 0 96.6 422
11:01:49 4 1021 205 0 NO 0 96.6 419
11:04:46 4 1021 206 0 O 0 96.6 424
11:07:48 4 1021 206 0 NO 0 96.5 424
11:10:47 4 1021 206 0 NO 0 96.4 430
11:13:46 5 1021 206 0 N 0 96.1 430
11:16:46 5 1021 206 0 N 0 95.1 427
11:19:47 5 1021 207 0 S 0 94.5 427
11:22:46 5 1021 207 0 N 0 94.3 427
11:25:46 5 1021 208 0 N 0 93.4 425
11:28:48 5 1021 206 0 NO 0 93.2 424
11:31:47 5 1021 207 0 SO 0 92.2 424
11:34:49 5 1020 207 0 NO 0 91.1 422
11:37:47 6 1021 207 0 S 0 91 427
11:40:46 6 1021 207 0 W 0 90.4 434
11:43:48 6 1021 207 0 SO 0 88.9 436
11:46:49 6 1021 207 0 S 0 88 430
11:49:48 7 1020 207 0 SO 0 87.5 426
11:52:48 7 1021 207 0 S 0 85 427
11:55:46 8 1021 207 0 S 0 80.3 424
11:58:47 8 1020 208 0 N 0 76.9 427
12:01:47 9 1020 208 0 O 0 76.4 425
12:04:47 9 1020 208 0 S 0 74 424
12:07:49 9 1020 209 0 SO 0 68.1 427
12:10:47 10 1021 209 0 SO 0 68.4 427
12:13:50 10 1021 209 0 SO 0 68.3 422
12:16:50 10 1021 210 0 SO 0 63.2 418
12:19:48 10 1020 211 0 SO 0 65.4 419
12:22:47 10 1021 211 0 SO 0 65.8 415
12:25:47 10 1020 212 0 SO 0 64.1 415
12:28:49 10 1021 213 0 SW 0 58.9 415
12:31:49 11 1020 213 0 S 0 59.5 424
12:34:48 11 1020 213 0 SO 0 59.5 418
12:37:48 11 1021 214 0 S 0 55.9 412
12:40:47 11 1020 214 0 SO 0 55.9 412
12:43:46 11 1020 215 0 O 0 57 413
12:46:46 11 1020 215 0 O 0 57.8 421
12:49:49 12 1020 217 0 SO 0 57.2 424
12:52:48 12 1020 219 0 SO 0 55.3 427
12:55:46 12 1020 222 0 O 0 54.4 424
12:58:48 12 1020 222 0 SO 0 54.7 424
13:01:48 12 1020 224 0 SO 0 55.2 416
13:04:48 11 1020 223 0 O 0 54.2 418
13:07:47 11 1020 224 0 SO 0 54.4 419
13:10:50 12 1021 225 0 N 0 50.8 413
13:13:48 12 1021 226 0 SW 0 50.9 421
13:16:49 11 1020 226 0 NW 0 51.1 415
13:19:48 11 1020 227 0 SO 0 50.1 415
13:22:49 11 1020 227 0 SO 0 49.5 415
13:25:49 10 1021 228 0 SO 0 49.4 418
13:28:48 10 1020 215 0 NW 0 49.7 421
13:31:49 10 1020 220 0 S 0 52.3 424
13:34:46 10 1020 216 0 NO 0 52.7 415
13:37:48 10 1020 219 0 SO 0 52.8 427
13:40:33 9 1020 231 0 SO 0 40 427
13:43:49 9 1020 230 0 S 0 56.2 421
13:46:47 10 1020 231 0 NO 0 56 413
13:49:49 10 1020 232 0 SO 0 55.9 415
13:52:48 11 1020 234 0 SO 0 55 415
13:55:47 11 1020 236 0 O 0 53.8 424
13:58:49 10 1020 236 0 SW 0 52.4 424
14:01:48 11 1020 236 0 SO 0 53 416
14:04:49 11 1020 240 0 NO 0 54.5 421
14:07:32 10 1020 243 0 S 0 45.4 417
14:10:51 12 1020 243 0 SO 0 48.2 422
14:13:46 12 1020 243 0 SW 0 47.9 424
14:16:48 12 1020 244 0 SO 0 44.1 422
14:19:48 12 1020 244 0 S 0 43.7 418
14:22:49 12 1020 244 0 SO 0 44.4 416
14:25:46 12 1020 244 0 S 0 46.1 414
14:28:48 12 1021 244 0 O 0 44.5 410
14:31:49 12 1020 245 0 SO 0 44.5 410
14:34:49 12 1020 245 0 SO 0 43.7 415
14:37:48 12 1020 245 0 SO 0 43.6 422
14:40:50 12 1020 245 0 SO 0 44.9 422
14:43:48 12 1020 245 0 SO 0 45.6 412
14:46:47 12 1020 245 0 SW 0 45.6 418
14:49:50 12 1020 245 0 SW 0 46.3 422
14:52:48 12 1020 245 0 SO 0 45.7 422
14:55:49 12 1019 245 0 NO 0 45.5 418
14:58:50 11 1019 245 0 NO 0 45.8 414
15:01:50 11 1020 246 0 SO 0 46.2 416
15:04:48 10 1019 246 0 S 0 48.9 418
15:07:47 10 1020 246 0 S 0 49.8 416
15:10:49 10 1019 246 0 SO 0 50.2 413
15:13:49 10 1019 246 0 NW 0 50.1 418
15:16:48 10 1019 246 0 SO 0 50 424
15:19:47 10 1020 246 0 O 0 51.2 425
15:22:48 10 1019 245 0 SO 0 52.3 416
15:25:46 10 1019 244 0 SO 0 52.3 413
15:28:49 10 1020 242 0 NO 0 52.7 415
15:31:47 9 1019 237 0 W 0 52.9 419
15:34:48 9 1020 236 0 SW 0 54.2 419
15:37:47 9 1020 232 0 S 0 54.9 419
15:40:48 9 1019 235 0 SO 0 55.7 418
15:43:47 9 1019 234 0 SO 0 56.3 415
15:46:49 9 1019 231 0 SO 0 57.7 416
15:49:45 9 1019 231 0 O 0 58.9 415
15:52:48 9 1019 230 0 NO 0 58.8 424
15:55:49 9 1019 227 0 S 0 58.2 424
15:58:48 8 1019 228 0 S 0 58.3 422
16:01:47 8 1019 230 0 S 0 59.9 416
16:04:48 8 1019 224 0 NO 0 60.5 415
16:07:47 8 1020 227 0 NO 0 60.7 415
16:10:46 8 1019 223 0 W 0 61.2 413
16:13:48 8 1020 217 0 O 0 61.2 419
16:16:46 8 1020 226 0 O 0 61.8 419
16:19:48 8 1018 228 0 SO 0 62.2 419
16:22:48 8 1019 226 0 SO 0 62.2 422
16:25:48 8 1019 224 0 NO 0 62.2 424
16:28:46 7 1019 220 0 N 0 62.7 424
16:31:50 7 1019 215 0 NO 0 62.9 422
16:34:47 7 1019 220 0 NO 0 63.1 418
16:37:47 7 1019 226 0 N 0 63.1 416
16:40:48 7 1018 233 0 N 0 63 427
16:43:48 7 1018 225 0 O 0 63 418
16:46:49 7 1018 225 0 NO 0 63.5 421
16:49:47 7 1018 222 0 SO 0 63.6 410
16:52:48 7 1019 212 0 SO 0 62.9 415
16:55:47 7 1018 207 0 S 0 62.1 407
16:58:47 6 1019 201 0 W 0 62.9 407
17:01:47 6 1019 200 0 NO 0 62.6 407
17:04:48 6 1018 198 0 O 0 62.4 412
17:07:48 6 1018 196 0 NO 0 62.2 403
17:10:47 6 1019 194 0 W 0 62.9 413
17:13:49 6 1018 191 0 SW 0 62.9 412
17:16:48 5 1018 188 0 NO 0 62.2 413
17:19:47 5 1018 185 0 NW 0 61.9 407
17:22:46 5 1019 182 0 O 0 61.3 407
17:25:49 5 1019 179 0 SO 0 61.2 413
17:28:49 5 1019 175 0 SW 0 61.4 421
17:31:48 5 1019 171 0 SO 0 61.9 419
17:34:50 5 1018 166 0 NW 0 62.2 413
17:37:46 5 1018 160 0 N 0 62.1 407
17:40:47 4 1019 153 0 NO 0 62.8 409
17:43:48 4 1019 145 0 NO 0 63.2 407
17:46:46 4 1018 136 0 O 0 63.3 404
17:49:49 4 1019 125 0 N 0 63.6 407
17:52:46 4 1019 113 0 NO 0 63.7 415
17:55:45 4 1019 101 0 N 0 64.1 415
17:58:48 4 1019 87 0 NO 0 64.3 413
18:01:49 4 1019 72 0 N 0 64.8 415
18:04:44 3 1018 57 0 O 0 65 414
18:07:45 3 1019 43 0 N 0 65.3 408
18:10:46 3 1019 30 0 S 0 65.6 406
18:13:47 3 1019 20 0 N 0 66.2 415
18:16:46 3 1019 13 0 O 0 66.6 419
18:19:49 3 1019 8 0 S 0 66.7 416
18:22:46 3 1019 4 0 N 0 66.7 412
18:25:45 3 1019 3 0 O 0 66.9 415
18:28:46 3 1019 0 0 N 0 67.6 418
18:31:46 2 1019 0 0 N 0 68 419
18:34:47 2 1018 0 0 NO 0 68.4 410
18:37:46 2 1019 0 0 NW 0 68.6 418
18:40:45 2 1019 0 0 NO 0 69.3 421
18:43:48 2 1019 0 0 O 0 69.9 423
18:46:45 2 1019 0 0 N 0 70.1 407
18:49:48 2 1019 0 0 O 0 70.1 406
18:52:46 2 1019 0 0 N 0 70.1 407
18:55:46 2 1019 0 0 S 0 70.5 407
18:58:49 2 1019 0 0 NO 0 70.6 409
19:01:46 2 1018 0 0 SO 0 70.9 416
19:04:47 2 1019 0 0 N 0 71.1 415
19:07:47 2 1019 0 0 NW 0 71.5 409
19:10:44 2 1019 0 0 NO 0 72.1 410
19:13:49 2 1019 0 0 SW 0 72.1 404
19:16:47 2 1019 0 0 O 0 72.6 404
19:19:47 1 1019 0 0 NW 0 73.5 436
19:22:44 1 1019 0 0 O 0 73.4 445
19:25:45 1 1019 0 0 O 0 73.8 468
19:28:44 1 1019 0 0 O 0 74 456
19:31:48 1 1019 0 0 NO 0 74.5 474
19:34:47 1 1020 0 0 O 0 74.9 483
19:37:46 1 1019 0 0 SO 0 75.2 495
19:40:46 1 1019 0 0 NO 0 75.1 498
19:43:49 1 1019 0 0 O 0 75.3 492
19:46:45 1 1019 0 0 O 0 75.5 494
19:49:46 1 1019 0 0 N 0 75.8 498
19:52:46 1 1019 0 0 S 0 76.1 504
19:55:47 1 1019 0 0 NO 0 76.5 507
19:58:45 1 1019 0 0 O 0 77.2 506
20:01:49 1 1019 0 0 NO 0 77.4 509
20:04:48 1 1019 0 0 NO 0 77.9 512
20:07:48 1 1019 0 0 NO 0 78.4 515
20:10:49 1 1019 0 0 NO 0 78.2 524
20:13:45 1 1019 0 0 NO 0 78.1 529
20:16:46 1 1019 0 0 NO 0 77.9 530
20:19:45 0 1019 0 0 NO 0 78.1 536
20:22:46 1 1019 0 0 NO 0 79.5 538
20:25:47 1 1019 0 0 NO 0 81 541
20:28:49 1 1018 0 0 NO 0 80.8 553
20:31:48 1 1019 0 0 NO 0 80.7 556
20:34:48 1 1019 0 0 NO 0 80.2 553
20:37:46 1 1019 0 0 NO 0 79.8 556
20:40:49 0 1018 0 0 NO 0 80 562
20:43:48 0 1019 0 0 NO 0 80.6 562
20:46:48 0 1019 0 0 NW 0 81.2 573
20:49:46 0 1018 0 0 O 0 81.9 574
20:52:45 0 1018 0 0 NO 0 81.9 574
20:55:46 0 1018 0 0 NO 0 82.3 571
20:58:45 0 1018 0 0 O 0 82.7 574
21:01:47 0 1019 0 0 SO 0 82.7 579
21:04:48 1 1018 0 0 NO 0 82.6 574
21:07:45 1 1019 0 0 W 0 83 577
21:10:48 1 1018 0 0 NO 0 82.8 587
21:13:47 1 1019 0 0 O 0 82.7 591
21:16:45 1 1018 0 0 O 0 83 594
21:19:47 1 1019 0 0 NO 0 83.1 586
21:22:47 1 1018 0 0 O 0 83.1 587
21:25:47 1 1018 0 0 NO 0 83.1 591
21:28:45 1 1019 0 0 N 0 83 595
21:31:48 0 1019 0 0 O 0 83.2 594
21:34:47 0 1018 0 0 NO 0 83.8 598
21:37:47 0 1018 0 0 N 0 84.6 606
21:40:46 1 1018 0 0 S 0 85.4 609
21:43:48 1 1018 0 0 SO 0 85.2 609
21:46:46 1 1019 0 0 S 0 85.1 604
21:49:47 1 1018 0 0 NW 0 84.9 609
21:52:45 1 1018 0 0 NO 0 85 615
21:55:45 1 1019 0 0 S 0 85.1 618
21:58:44 1 1018 0 0 O 0 84.9 615
22:01:47 1 1018 0 0 NO 0 84.7 613
22:04:51 1 1019 0 0 NW 0 84.6 616
22:07:48 1 1018 0 0 SO 0 84.3 629
22:10:46 1 1018 0 0 SW 0 84.3 632
22:13:50 1 1019 0 0 NO 0 84.5 627
22:16:48 1 1018 0 0 SO 0 84.6 618
22:19:48 1 1018 0 0 SO 0 84.7 619
22:22:47 1 1017 0 0 NO 0 84.7 630
22:25:48 0 1018 0 0 NO 0 84.7 621
22:28:45 0 1018 0 0 NO 0 84.7 626
22:31:45 0 1018 0 0 N 0 84.8 625
22:34:45 0 1018 0 0 N 0 85.1 630
22:37:48 0 1017 0 0 SO 0 85.2 633
22:40:46 0 1018 0 0 NO 0 84.9 635
22:43:48 0 1018 0 0 NW 0 85.1 636
22:46:47 0 1017 0 0 NO 0 85 647
22:49:49 0 1018 0 0 S 0 84.9 647
22:52:46 0 1017 0 0 NO 0 85 647
22:55:48 -1 1018 0 0 SO 0 85 641
22:58:48 -1 1018 0 0 SO 0 85.2 637
23:01:49 -1 1018 0 0 O 0 85.4 638
23:04:46 -1 1019 0 0 O 0 85.7 638
23:07:47 -1 1018 0 0 O 0 85.8 642
23:10:47 -1 1019 0 0 O 0 85.6 636
23:13:47 -1 1019 0 0 O 0 85.7 632
23:16:45 -1 1019 0 0 O 0 85.9 627
23:19:46 -1 1019 0 0 O 0 86.3 633
23:22:46 -1 1017 0 0 O 0 86.5 636
23:25:47 -1 1019 0 0 S 0 86.7 635
23:28:46 -1 1018 0 0 S 0 86.7 644
23:31:45 -1 1018 0 0 S 0 86.7 648
23:34:46 -1 1018 0 0 S 0 86.8 651
23:37:47 -2 1018 0 0 S 0 86.8 647
23:40:46 -2 1018 0 0 S 0 86.8 650
23:43:46 -2 1018 0 0 S 0 86.9 653
23:46:46 -2 1019 0 0 S 0 87.3 655
23:49:47 -2 1019 0 0 S 0 87.5 650
23:52:45 -2 1019 0 0 N 0 87.7 644
23:55:45 -2 1019 0 0 N 0 88.2 647
23:58:47 -2 1019 0 0 N 0 88.3 647

Letzte Änderung : 04-Jan-2022
Copyright Jens Köhler, Wolfsburg, Obere Dorfstraße 10d